AirNav   Air Wisconsin pilot careers
 
 370 users online  

2AK1 Blair Lake Airport
Fairbanks (Ft Wainwright), Alaska, USA


FAA INFORMATION EFFECTIVE 01 FEBRUARY 2018

Location

FAA Identifier: 2AK1
Lat/Long: 64-21-49.4610N / 147-21-49.5290W
64-21.824350N / 147-21.825483W
64.3637392 / -147.3637581
(estimated)
Elevation: 910 ft. / 277 m (estimated)
Variation: 28E (1985)
From city: 29 miles SE of central business district of the associated city
Time zone: UTC -9 (UTC -8 during Daylight Saving Time)
Zip code: 99714

Airport Operations

Airport use: Private use. Permission required prior to landing
Activation date: 06/1971
Control tower: no
ARTCC: ANCHORAGE CENTER
FSS: FAIRBANKS FLIGHT SERVICE STATION [907-474-0788]
Attendance: UNATNDD
Wind indicator: yes
Segmented circle: no

Nearby radio navigation aids

VOR radial/distance  VOR name  Freq  Var
FAIr126/31.0FAIRBANKS VORTAC108.6021E

 
NDB name  Hdg/Dist  Freq  Var  ID
CHENA152/28.725721ECUN -.-. ..- -.

Airport Services

Airframe service: NONE
Powerplant service: NONE
Bottled oxygen: NONE
Bulk oxygen: NONE

Runway Information

Runway 15/33

Dimensions: 1530 x 50 ft. / 466 x 15 m
Surface: turf
RUNWAY 15  RUNWAY 33
Gradient: 1.5%1.5%
Traffic pattern: leftleft
Markings: nonenone
Runway end identifier lights: nono
Obstructions: trees, 800 ft. from runway, 15:1 slope to cleartrees hill, 2500 ft. from runway, 15:1 slope to clear

Airport Ownership and Management from official FAA records

Ownership: U.S. Army
Owner: U.S. ARMY
DPTSM
FT. RICHARDSON, AK 99505
Phone 907-384-2230
Manager: OPNS OFFICER
WAAF
FT WAINWRIGHT, AK 99703
Phone 907-353-6320

Airport Operational Statistics

Aircraft operations: avg 25/month *
67% military
33% transient general aviation
* for 12-month period ending 07 July 1976

Additional Remarks

WASHED AREA NEAR PARKING AREA.
SHRUBS 3' - 8'HIGH ON BOTH SIDES OF RWY.

Instrument Procedures

There are no published instrument procedures at 2AK1.

Some nearby airports with instrument procedures:

PAEI - Eielson Air Force Base (19 nm N)
PAFB - Ladd Army Airfield (29 nm N)
PAFA - Fairbanks International Airport (30 nm NW)
PANN - Nenana Municipal Airport (46 nm W)
PABI - Allen Army Airfield (48 nm SE)
 
Loc | Ops | Rwys | IFR | FBO | Links
Com | Nav | Svcs | Stats | Notes

Crowley
 
Area around 2AK1 (Blair Lake Airport)
 
Road maps at: MapQuest Bing Google
 
Aerial photo
WARNING: Photo may not be current or correct
Aerial photo of 2AK1 (Blair Lake Airport)
Do you have a better or more recent aerial photo of Blair Lake Airport that you would like to share? If so, please send us your photo.

 
Sectional chart

 
Airport distance calculator
Flying to Blair Lake Airport? Find the distance to fly.

From to 2AK1

Sunrise and sunset
Times for 20-Feb-2018
 Local
(UTC-9)
 Zulu
(UTC)
Morning civil twilight07:3916:39
Sunrise08:2917:29
Sunset17:3702:37
Evening civil twilight18:2803:28

Current date and time
Zulu (UTC)  20-Feb-2018 10:35:52
Local (UTC-9)  20-Feb-2018 01:35:52
 
METAR
PAEI 
19nm N 
200956Z AUTO 00000KT 7SM OVC110 M07/M08 A3021 RMK AO2 FZDZB08E24FZDZB25E26FZDZB28E35FZDZB37E39FZDZB41E43FZDZB45E46FZDZB49E52FZDZB53E54 SLP243 T10751078 VISNO RWY32 $
PAFB 
29nm N 
200958Z AUTO 00000KT 6SM R25R/5000FT BR CLR M09/M09 A3023 RMK AO2 SLP247 T10861094
PAFA 
30nm NW 
201012Z 00000KT 10SM FEW002 BKN090 M07/M08 A3023 RMK AO2 T10721083 $
TAF
PAEI 
19nm N 
200555Z 2005/2110 VRB04KT 9000 BR BKN085 OVC150 620859 QNH3022INS TEMPO 2005/2015 4000 BR BECMG 2014/2015 26006KT 6000 -SN BR SCT009 BKN020 620206 520102 QNH3026INS TEMPO 2015/2021 26012G18KT 3200 -BLSN BR BKN009 650097 OVC018 BECMG 2023/2024 26004KT 9000 BR FEW015 SCT025 QNH3048INS TXM01/2022Z TNM12/2012Z
NOTAMs
Click for the latest NOTAMs
NOTAMs are issued by the DoD/FAA and will open in a separate window not controlled by AirNav.

 

 
 

Would you like to see your business listed on this page?

 If your business provides an interesting product or service to pilots, flight crews, aircraft, or users of the Blair Lake Airport, you should consider listing it here.  To start the listing process, click on the button below
 
Add a business
 

Other Pages about Blair Lake Airport

Update a link
 
Copyright © AirNav, LLC. All rights reserved. Privacy Policy  Contact